Washington, NE

2:01 PM CDT on September 29, 2016 (GMT -0500)
Blair Municipal

Weather History for KBTA - October, 2013

Change the Weather History Date:

Thursday, October 10, 2013

  Actual Average (KOMA) Record (KOMA)
Temperature  
Mean Temperature 68 °F 56 °F  
Max Temperature 79 °F 67 °F 91 °F (1928)
Min Temperature 57 °F 44 °F 27 °F (1872)
Degree Days  
Heating Degree Days 0 10  
Month to date heating degree days 88  
Since 1 July heating degree days 191  
Cooling Degree Days 3 1  
Month to date cooling degree days 10  
Year to date cooling degree days 1107  
Growing Degree Days 18 (Base 50)    
Moisture  
Dew Point 50 °F    
Average Humidity 55    
Maximum Humidity 74    
Minimum Humidity 37    
Precipitation  
Precipitation 0.00 in 0.07 in 2.85 in (1961)
Month to date precipitation 0.76  
Year to date precipitation 26.55  
Snow  
Snow 0.00 in 0.00 in - ()
Month to date snowfall 0.0  
Since 1 July snowfall 0.0  
Snow Depth -    
Sea Level Pressure  
Sea Level Pressure 29.91 in    
Wind  
Wind Speed 12 mph (SSE)    
Max Wind Speed 22 mph    
Max Gust Speed 30 mph    
Visibility 10 miles    
Events      
T = Trace of Precipitation, MM = Missing Value Source: NWS Daily Summary

Daily Weather History Graph

Daily Weather History Graph

Search for Another Location

Airport or City:

Trip Planner

Search our weather history database for the weather conditions in past years. The results will help you decide how hot, cold, wet, or windy it might be!

Date:

Astronomy

Oct. 10, 2013 Rise Set
Actual Time 7:31 AM CDT 6:50 PM CDT
Civil Twilight 7:03 AM CDT 7:18 PM CDT
Nautical Twilight 6:31 AM CDT 7:50 PM CDT
Astronomical Twilight 5:59 AM CDT 8:22 PM CDT
Moon 1:26 PM CDT (10/10) 11:27 PM CDT (10/10)
Length of Visible Light 12h 15m
Length of Day
11h 19m
Waxing Crescent, 36% of the Moon is Illuminated
Oct 10
Waxing Crescent
Oct 11
First Quarter
Oct 18
Full
Oct 26
Last Quarter
Nov 3
New

Hourly Weather History & Observations

Time (CDT) Temp. Dew Point Humidity Pressure Visibility Wind Dir Wind Speed Gust Speed Precip Events Conditions
12:15 AM 62.6 °F 47.5 °F 58% 29.99 in 10.0 mi SSE 11.5 mph - N/A   Clear
12:35 AM 62.2 °F 47.5 °F 58% 29.99 in 10.0 mi SSE 11.5 mph 18.4 mph N/A   Clear
12:55 AM 61.9 °F 47.3 °F 59% 29.98 in 10.0 mi SSE 12.7 mph - N/A   Clear
1:15 AM 61.7 °F 47.1 °F 59% 29.98 in 10.0 mi SSE 12.7 mph 17.3 mph N/A   Clear
1:35 AM 61.3 °F 47.3 °F 60% 29.98 in 10.0 mi SSE 9.2 mph - N/A   Clear
1:55 AM 61.2 °F 46.9 °F 60% 29.99 in 10.0 mi SSE 10.4 mph - N/A   Clear
2:15 AM 60.8 °F 47.3 °F 61% 29.99 in 10.0 mi SSE 10.4 mph - N/A   Clear
2:35 AM 60.1 °F 47.3 °F 63% 29.99 in 10.0 mi SSE 9.2 mph - N/A   Clear
2:55 AM 59.5 °F 47.7 °F 65% 29.99 in 10.0 mi SSE 9.2 mph - N/A   Clear
3:15 AM 59.2 °F 47.7 °F 66% 29.98 in 10.0 mi SSE 6.9 mph - N/A   Clear
3:35 AM 58.1 °F 47.7 °F 68% 29.98 in 10.0 mi SSE 9.2 mph - N/A   Clear
3:55 AM 58.1 °F 48.0 °F 69% 29.98 in 10.0 mi SSE 9.2 mph - N/A   Clear
4:15 AM 57.2 °F 47.8 °F 71% 29.99 in 10.0 mi SSE 6.9 mph - N/A   Clear
4:35 AM 57.2 °F 48.2 °F 72% 29.99 in 10.0 mi SSE 9.2 mph - N/A   Clear
4:55 AM 57.2 °F 48.4 °F 72% 29.98 in 10.0 mi SSE 9.2 mph - N/A   Clear
5:15 AM 57.2 °F 48.4 °F 72% 29.98 in 10.0 mi SSE 10.4 mph - N/A   Clear
5:35 AM 57.2 °F 48.6 °F 73% 29.98 in 10.0 mi SSE 11.5 mph 16.1 mph N/A   Clear
5:55 AM 57.0 °F 48.6 °F 73% 29.98 in 10.0 mi SSE 9.2 mph - N/A   Clear
6:15 AM 57.2 °F 48.7 °F 73% 29.98 in 10.0 mi SSE 10.4 mph - N/A   Clear
6:35 AM 57.2 °F 48.7 °F 73% 29.98 in 10.0 mi SSE 10.4 mph - N/A   Clear
6:55 AM 57.4 °F 49.1 °F 74% 29.98 in 10.0 mi SE 11.5 mph - N/A   Clear
7:15 AM 57.4 °F 49.1 °F 74% 29.98 in 10.0 mi SE 9.2 mph - N/A   Clear
7:35 AM 57.4 °F 49.1 °F 74% 29.97 in 10.0 mi SSE 9.2 mph - N/A   Clear
7:55 AM 57.4 °F 49.1 °F 74% 29.97 in 10.0 mi SE 10.4 mph - N/A   Clear
8:15 AM 57.7 °F 49.1 °F 73% 29.98 in 10.0 mi SSE 9.2 mph - N/A   Clear
8:35 AM 59.0 °F 49.3 °F 70% 29.98 in 10.0 mi SSE 9.2 mph - N/A   Clear
8:55 AM 60.1 °F 49.5 °F 68% 29.98 in 10.0 mi SSE 15.0 mph - N/A   Clear
9:15 AM 61.2 °F 49.5 °F 65% 29.98 in 10.0 mi SSE 11.5 mph 18.4 mph N/A   Clear
9:35 AM 62.1 °F 49.8 °F 64% 29.98 in 10.0 mi SSE 16.1 mph - N/A   Clear
9:55 AM 63.0 °F 50.0 °F 63% 29.97 in 10.0 mi SSE 15.0 mph 21.9 mph N/A   Clear
10:15 AM 64.6 °F 50.5 °F 60% 29.97 in 10.0 mi SSE 12.7 mph 19.6 mph N/A   Clear
10:35 AM 66.7 °F 50.9 °F 57% 29.96 in 10.0 mi SSE 17.3 mph - N/A   Clear
10:55 AM 68.5 °F 51.1 °F 54% 29.96 in 10.0 mi SSE 17.3 mph 23.0 mph N/A   Clear
11:15 AM 70.2 °F 51.4 °F 51% 29.95 in 10.0 mi SSE 13.8 mph 21.9 mph N/A   Clear
11:35 AM 71.1 °F 51.4 °F 50% 29.94 in 10.0 mi SSE 15.0 mph 19.6 mph N/A   Clear
11:55 AM 73.2 °F 52.0 °F 47% 29.94 in 10.0 mi SSE 16.1 mph 23.0 mph N/A   Clear
12:15 PM 73.8 °F 52.2 °F 47% 29.93 in 10.0 mi SSE 15.0 mph 21.9 mph N/A   Clear
12:35 PM 74.7 °F 52.5 °F 46% 29.93 in 10.0 mi SSE 12.7 mph 17.3 mph N/A   Clear
12:55 PM 75.7 °F 52.3 °F 44% 29.92 in 10.0 mi SSE 16.1 mph 19.6 mph N/A   Clear
1:15 PM 76.1 °F 52.2 °F 43% 29.91 in 10.0 mi SSE 15.0 mph 21.9 mph N/A   Clear
1:35 PM 77.4 °F 52.7 °F 42% 29.90 in 10.0 mi SSE 15.0 mph 24.2 mph N/A   Clear
1:55 PM 77.9 °F 51.8 °F 40% 29.89 in 10.0 mi SSE 19.6 mph 26.5 mph N/A   Clear
2:15 PM 79.0 °F 51.6 °F 38% 29.88 in 10.0 mi SSE 16.1 mph 27.6 mph N/A   Clear
2:35 PM 78.3 °F 51.6 °F 39% 29.87 in 10.0 mi SE 17.3 mph 26.5 mph N/A   Clear
2:55 PM 79.2 °F 51.4 °F 38% 29.86 in 10.0 mi SSE 19.6 mph 27.6 mph N/A   Clear
3:15 PM 79.2 °F 51.4 °F 38% 29.86 in 10.0 mi SSE 19.6 mph 26.5 mph N/A   Clear
3:35 PM 78.8 °F 51.1 °F 38% 29.86 in 10.0 mi SSE 18.4 mph 26.5 mph N/A   Clear
3:55 PM 77.9 °F 50.9 °F 39% 29.85 in 10.0 mi SE 12.7 mph 24.2 mph N/A   Clear
4:15 PM 79.2 °F 51.8 °F 38% 29.84 in 10.0 mi SE 15.0 mph 23.0 mph N/A   Clear
4:35 PM 78.8 °F 50.9 °F 38% 29.84 in 10.0 mi SE 18.4 mph 26.5 mph N/A   Clear
4:55 PM 79.0 °F 50.5 °F 37% 29.84 in 10.0 mi SSE 21.9 mph 26.5 mph N/A   Clear
5:15 PM 78.4 °F 50.0 °F 37% 29.84 in 10.0 mi SE 16.1 mph 23.0 mph N/A   Clear
5:35 PM 78.1 °F 50.2 °F 38% 29.83 in 10.0 mi SSE 15.0 mph 27.6 mph N/A   Clear
5:55 PM 77.4 °F 50.2 °F 38% 29.83 in 10.0 mi SSE 15.0 mph 24.2 mph N/A   Clear
6:15 PM 76.6 °F 50.0 °F 39% 29.83 in 10.0 mi SE 15.0 mph 23.0 mph N/A   Clear
6:35 PM 75.4 °F 50.2 °F 41% 29.82 in 10.0 mi SSE 13.8 mph 20.7 mph N/A   Clear
6:55 PM 73.9 °F 50.9 °F 44% 29.82 in 10.0 mi SSE 10.4 mph - N/A   Clear
7:15 PM 72.7 °F 51.3 °F 47% 29.82 in 10.0 mi SSE 10.4 mph 16.1 mph N/A   Clear
7:35 PM 72.1 °F 51.8 °F 49% 29.82 in 10.0 mi SE 12.7 mph 19.6 mph N/A   Clear
7:55 PM 71.6 °F 52.0 °F 50% 29.82 in 10.0 mi SE 10.4 mph 19.6 mph N/A   Clear
8:15 PM 71.2 °F 52.2 °F 51% 29.82 in 10.0 mi SSE 15.0 mph 19.6 mph N/A   Clear
8:35 PM 70.7 °F 52.2 °F 52% 29.82 in 10.0 mi SSE 16.1 mph 23.0 mph N/A   Clear
8:55 PM 70.2 °F 52.0 °F 52% 29.82 in 10.0 mi SSE 17.3 mph 20.7 mph N/A   Clear
9:15 PM 69.8 °F 52.0 °F 53% 29.82 in 10.0 mi SE 12.7 mph 20.7 mph N/A   Clear
9:35 PM 68.9 °F 51.8 °F 54% 29.82 in 10.0 mi SE 13.8 mph 20.7 mph N/A   Clear
9:55 PM 68.4 °F 51.8 °F 55% 29.81 in 10.0 mi SE 15.0 mph 26.5 mph N/A   Clear
10:15 PM 68.0 °F 51.8 °F 56% 29.81 in 10.0 mi SSE 13.8 mph 21.9 mph N/A   Clear
10:35 PM 68.0 °F 51.8 °F 56% 29.79 in 10.0 mi SE 18.4 mph 29.9 mph N/A   Clear
10:55 PM 68.4 °F 51.8 °F 55% 29.80 in 10.0 mi SSE 17.3 mph 28.8 mph N/A   Clear
11:15 PM 67.6 °F 51.6 °F 56% 29.80 in 10.0 mi SSE 16.1 mph 28.8 mph N/A   Clear
11:35 PM 66.7 °F 51.8 °F 59% 29.80 in 10.0 mi SSE 17.3 mph 24.2 mph N/A   Clear
11:55 PM 66.2 °F 51.8 °F 60% 29.79 in 10.0 mi SSE 19.6 mph 25.3 mph N/A   Clear